[[{"header":{"parameterUnit":"m.s-1","parameterCategory":2,"la1":30.2991,"la2":30.254,"lo1":-89.0895,"lo2":-89.0444,"dy":0.0017,"dx":0.0017,"nx":28,"ny":28,"refTime":"2023-10-03T03:00:00:Z","depth":"0","parameterNumber":2,"parameterNumberName":"U-component_of_CURRENTS"},"data":[0,0,0,0,0,0,0,0,0,0,0,0,0,0,0,0,0,0,0,0,0,0,0,0,0,0,0,0,0,0,0,0,0,0,0,0,0,0,0,0,0,0,0,0,0,0,0,0,0,0,0,0,0,0,0,0,0,0,0.1865,0.1865,0,0.1849,0.1849,0.1849,0.1843,0.1843,0.1843,0.1843,0.1898,0.1899,0.1901,0,0,0,0,0,0,0,0,0,0,0,0,0,0.2024,0.2021,0.1865,0.1865,0.1864,0.1849,0.1849,0.1849,0.1843,0.1843,0.1843,0.1843,0.1897,0.1899,0.1901,0,0,0,0,0,0,0,0,0,0,0,0,0,0.1977,0.202,0.1865,0.1859,0.1858,0.1849,0.1849,0.1849,0.1843,0.1843,0.1843,0.1843,0.1897,0.1899,0.1901,0.1917,0,0,0.1908,0.1909,0,0,0,0,0,0,0,0,0.198,0.1972,0.186,0.1859,0.1858,0.1847,0.1925,0.1875,0.1843,0.185,0.1843,0.1843,0.1887,0.189,0.1888,0.192,0.1922,0.1908,0.191,0.1911,0.1911,0,0,0,0,0,0,0,0.1983,0.1973,0.186,0.186,0.1859,0.1903,0.1895,0.1916,0.1872,0.185,0.1849,0.1845,0.1887,0.1886,0.1889,0.1923,0.1908,0.191,0.1912,0.1913,0.1998,0.1998,0,0,0,0,0,0,0.1974,0.1975,0.1861,0.1859,0.1919,0.1899,0.189,0.1852,0.187,0.1871,0.1845,0.1845,0.1882,0.1887,0.1891,0.1942,0.1911,0.1913,0.1914,0.1997,0.1998,0.1999,0,0,0,0,0,0,0.1977,0.1963,0.1861,0.1919,0.1909,0.1895,0.1853,0.1851,0.1852,0.1865,0.1869,0.1847,0.1882,0.1888,0.1915,0.1943,0.1914,0.1916,0.1996,0.1997,0.1998,0.2025,0,0,0,0,0,0,0.1981,0.1963,0.1939,0.1916,0.1905,0.1861,0.1853,0.1851,0.1848,0.1848,0.1868,0.1872,0.1882,0.1911,0.1917,0.1946,0.1918,0.1994,0.1996,0.1998,0.2023,0.2027,0.2031,0,0,0,0,0,0.1987,0.1943,0.1937,0.1924,0.1868,0.1861,0.186,0.1853,0.1849,0.1852,0.1865,0.1872,0.1926,0.1913,0.192,0.1951,0.1994,0.1996,0.1998,0.2021,0.2026,0.203,0,0,0,0,0,0,0.1972,0.1938,0.1931,0.187,0.1873,0.1859,0.1856,0.1855,0.1865,0.1867,0.188,0.1886,0.1927,0.1929,0.1915,0.1979,0.1963,0.1966,0.1979,0.1983,0.1987,0.1983,0.192,0,0,0,0,0,0.1963,0.1936,0.1916,0.1871,0.1873,0.1869,0.1866,0.1865,0.1868,0.1871,0.1886,0.1907,0.194,0.1952,0.1979,0.2007,0.2015,0.2031,0.2035,0.2038,0.2039,0.2083,0.2091,0.2005,0.2005,0.2005,0,0,0.1941,0.1923,0.1902,0.1872,0.1871,0.1877,0.1867,0.1863,0.1876,0.1878,0.1901,0.1926,0.1952,0.199,0.2008,0.1994,0.2065,0.2041,0.2043,0.2043,0.2086,0.2094,0.2102,0.2007,0.2006,0.2006,0,0,0.1913,0.1874,0.1863,0.1871,0.1876,0.1878,0.188,0.1879,0.1888,0.191,0.1927,0.1961,0.1994,0.2024,0.2042,0.2081,0.2091,0.2093,0.2104,0.2147,0.2154,0.2161,0.2173,0.218,0.2087,0.2087,0.2088,0,0.1896,0.1866,0.1861,0.1869,0.1874,0.1881,0.1887,0.1901,0.1911,0.193,0.1922,0.1993,0.2012,0.2073,0.2084,0.2092,0.2105,0.2085,0.2152,0.2159,0.2165,0.2176,0.2184,0.2089,0.2089,0.2089,0.2089,0,0.1879,0.1864,0.1859,0.1873,0.1883,0.1885,0.1907,0.1927,0.1938,0.1956,0.2012,0.2038,0.2079,0.2096,0.21,0.2164,0.2154,0.2159,0.214,0.2175,0.2184,0.2192,0.2091,0.2091,0.209,0.209,0,0,0.1817,0.1842,0.1843,0.1857,0.1885,0.1888,0.1925,0.1958,0.1985,0.2014,0.2051,0.2109,0.2125,0.2146,0.2167,0.2195,0.2246,0.2191,0.2193,0.2201,0.2323,0.2246,0.2247,0.2266,0.2268,0.2269,0.2307,0,0.1809,0.1822,0.184,0.1859,0.1868,0.1901,0.1932,0.1972,0.2006,0.2047,0.2095,0.2137,0.2145,0.2164,0.2203,0.2243,0.227,0.2234,0.2288,0.2289,0.2216,0.2255,0.2125,0.2142,0.2314,0.2316,0.2316,0,0.1793,0.1806,0.182,0.1858,0.1864,0.1883,0.1937,0.1967,0.2041,0.207,0.213,0.2162,0.2226,0.2215,0.2305,0.2283,0.2305,0.2323,0.2326,0.225,0.2228,0.2137,0.215,0.209,0.2328,0.2328,0.2327,0,0.1761,0.179,0.18,0.1813,0.1858,0.1879,0.1907,0.1974,0.2007,0.2085,0.2117,0.2199,0.2237,0.2291,0.2336,0.2326,0.2417,0.2409,0.236,0.2353,0.225,0.2231,0.2209,0.2467,0.2467,0.2467,0.2467,0,0.1741,0.1749,0.1787,0.1793,0.1811,0.1856,0.1889,0.1936,0.2007,0.205,0.2124,0.217,0.2259,0.232,0.2352,0.238,0.2438,0.2366,0.2365,0.2253,0.2235,0.2183,0.2153,0.2468,0.2468,0.2467,0.2467,0,0.1704,0.1727,0.1739,0.1783,0.1795,0.1809,0.1865,0.1896,0.197,0.203,0.2053,0.2163,0.2237,0.231,0.2395,0.239,0.2336,0.2418,0.2262,0.2242,0.2106,0.2081,0.1965,0.1896,0.2357,0.2356,0.2354,0,0.1686,0.1689,0.1719,0.1725,0.1743,0.1772,0.1793,0.1866,0.1902,0.2019,0.2043,0.2139,0.2193,0.2285,0.2299,0.2334,0.2278,0.2216,0.2169,0.2081,0.2055,0.197,0.1915,0.2043,0.204,0.2037,0.2034,0,0.1657,0.1666,0.1678,0.1684,0.17,0.1716,0.1754,0.1777,0.1867,0.1914,0.1989,0.2039,0.213,0.211,0.2152,0.2154,0.2062,0.2151,0.2115,0.1847,0.1699,0.1637,0.2024,0.2007,0.2009,0.2011,0.2013,0.2014,0.1635,0.1629,0.164,0.1638,0.1651,0.1653,0.164,0.1692,0.1723,0.1775,0.1878,0.1908,0.1937,0.1972,0.1965,0.1856,0.1873,0.1777,0.1767,0.17,0.1582,0.1889,0.1836,0.1838,0.1839,0.1841,0.1842,0,0.1596,0.159,0.1593,0.1578,0.1556,0.1585,0.1601,0.1578,0.1573,0.1652,0.1689,0.1697,0.1656,0.1677,0.1599,0.1498,0.1423,0.1439,0.1306,0.1284,0.1609,0.1546,0.136,0.136,0.136,0.136,0.136,0.136,0.1577,0.1551,0.154,0.148,0.1468,0.1413,0.14,0.1388,0.1415,0.1409,0.1411,0.145,0.1482,0.1403,0.1282,0.1234,0.1119,0.1013,0.1053,0.1304,0.1335,0.1365,0.13,0.1066,0.1065,0.0646,0.0643,0.0641]},{"header":{"parameterUnit":"m.s-1","parameterCategory":2,"la1":30.2991,"la2":30.254,"lo1":-89.0895,"lo2":-89.0444,"dy":0.0017,"dx":0.0017,"nx":28,"ny":28,"refTime":"2023-10-03T03:00:00:Z","depth":"0","parameterNumber":3,"parameterNumberName":"V-component_of_CURRENTS"},"data":[0,0,0,0,0,0,0,0,0,0,0,0,0,0,0,0,0,0,0,0,0,0,0,0,0,0,0,0,0,0,0,0,0,0,0,0,0,0,0,0,0,0,0,0,0,0,0,0,0,0,0,0,0,0,0,0,0,0,0.0028,0.0028,0,0.001,0.001,0.001,-0.0001,-0.0001,-0.0001,-0.0001,-0.0068,-0.007,-0.0071,0,0,0,0,0,0,0,0,0,0,0,0,0,0.0019,0.002,0.0028,0.0028,0.0028,0.001,0.001,0.001,-0.0001,-0.0001,-0.0001,-0.0001,-0.0067,-0.0069,-0.0071,0,0,0,0,0,0,0,0,0,0,0,0,0,0.0014,0.002,0.0028,0.002,0.0019,0.001,0.001,0.001,-0.0001,-0.0001,-0.0001,-0.0001,-0.0067,-0.0069,-0.0072,-0.0086,0,0,-0.008,-0.0081,0,0,0,0,0,0,0,0,0.0015,0.0015,0.0022,0.0021,0.002,0.0007,-0.0018,-0.0025,-0.0001,0.0007,-0.0001,-0.0001,-0.0047,-0.0052,-0.0054,-0.0089,-0.0092,-0.008,-0.0081,-0.0083,-0.0083,0,0,0,0,0,0,0,0.0015,0.0015,0.0021,0.0021,0.002,0.0006,0.0006,-0.0019,-0.0021,0.0006,0.0005,0.0003,-0.0048,-0.0052,-0.0056,-0.0093,-0.008,-0.0082,-0.0084,-0.0085,-0.0151,-0.0151,0,0,0,0,0,0,0.0019,0.0016,0.0022,0.002,0.0017,0.0006,0.0006,0.0011,-0.0019,-0.0024,0.0003,0.0003,-0.0047,-0.0053,-0.0058,-0.0065,-0.0083,-0.0085,-0.0086,-0.0151,-0.0151,-0.0151,0,0,0,0,0,0,0.0019,0.002,0.0022,0.0017,0.0016,0.0007,0.0012,0.0011,0.001,-0.0021,-0.0026,0.0005,-0.0047,-0.0055,-0.0069,-0.0068,-0.0086,-0.0088,-0.015,-0.0151,-0.0151,-0.0086,0,0,0,0,0,0,0.0019,0.0021,0.0027,0.0018,0.0017,0.0023,0.0013,0.001,0.0008,0.0008,-0.0022,-0.0028,-0.0048,-0.0065,-0.0072,-0.0072,-0.0091,-0.015,-0.015,-0.0151,-0.0088,-0.0084,-0.0081,0,0,0,0,0,0.0019,0.003,0.0028,0.0029,0.0026,0.0024,0.0022,0.0014,0.0009,0.0012,-0.0004,-0.0027,-0.0073,-0.0066,-0.0075,-0.0076,-0.015,-0.015,-0.0151,-0.009,-0.0085,-0.0081,0,0,0,0,0,0,0.0038,0.0029,0.0027,0.0038,0.0033,0.0022,0.0024,0.0017,0.0008,0.0006,-0.0022,-0.0029,-0.0043,-0.0071,-0.0064,-0.0098,-0.0119,-0.0121,-0.0069,-0.0065,-0.0062,-0.0042,-0.0093,0,0,0,0,0,0.0044,0.0045,0.0038,0.0047,0.0046,0.0035,0.0033,0.0028,0.0018,0.0014,-0.0006,-0.0032,-0.0053,-0.0066,-0.0089,-0.0105,-0.0119,-0.0115,-0.0112,-0.0108,-0.0099,-0.0117,-0.0113,-0.0153,-0.0153,-0.0153,0,0,0.0054,0.0049,0.0051,0.005,0.0046,0.0052,0.0034,0.0035,0.0041,0.0006,0.0008,-0.0017,-0.0054,-0.0066,-0.0077,-0.0088,-0.0104,-0.0109,-0.0105,-0.0097,-0.0117,-0.0113,-0.0109,-0.0153,-0.0153,-0.0153,0,0,0.0072,0.0071,0.0077,0.0075,0.0071,0.0065,0.0067,0.0058,0.0056,0.0053,0.0029,0.0012,-0.0024,-0.0042,-0.0059,-0.0053,-0.0082,-0.0072,-0.0038,-0.0056,-0.0052,-0.0049,-0.0051,-0.0049,-0.0073,-0.0073,-0.0072,0,0.0086,0.0095,0.008,0.0088,0.0092,0.0074,0.0088,0.0083,0.0072,0.0074,0.006,0.0021,-0.001,-0.0022,-0.002,-0.0043,-0.0054,-0.0047,-0.0048,-0.0046,-0.0044,-0.0047,-0.0045,-0.0069,-0.007,-0.007,-0.007,0,0.0108,0.0118,0.0123,0.0126,0.0128,0.0137,0.0129,0.0131,0.0123,0.0117,0.0107,0.0072,0.005,0.003,0.0008,0.0002,-0.0009,-0.0037,-0.0052,-0.0035,-0.004,-0.0039,-0.0065,-0.0066,-0.0067,-0.0068,0,0,0.0138,0.0138,0.0142,0.0152,0.0151,0.0158,0.0167,0.0174,0.0189,0.0166,0.018,0.0139,0.0122,0.0101,0.0066,0.0048,0.0053,0.0015,0.0013,0.0028,0.0028,0.0031,0.0032,0.0025,0.0026,0.0026,0.0023,0,0.0164,0.0186,0.018,0.0208,0.0221,0.0211,0.0225,0.0227,0.0225,0.0232,0.0195,0.0188,0.0147,0.0137,0.0116,0.007,0.0056,0.0057,-0.0003,-0.0004,0.0008,0.0033,0.0073,0.0075,0.0024,0.0024,0.0024,0,0.0193,0.0204,0.0234,0.0253,0.0259,0.0274,0.0299,0.0309,0.0309,0.0306,0.0293,0.0263,0.0239,0.0195,0.0141,0.0144,0.0095,0.0056,0.0054,0.0037,0.0001,0.0045,0.0078,0.0032,0.0025,0.0025,0.0025,0,0.0225,0.0246,0.0272,0.0279,0.0295,0.0312,0.0324,0.0335,0.0357,0.0354,0.0369,0.0329,0.0317,0.0252,0.0177,0.0157,0.0119,0.0077,0.0037,0.0037,0.0049,0.005,0.0042,0.0038,0.0038,0.0038,0.0038,0,0.0257,0.028,0.0291,0.0307,0.0348,0.0347,0.0394,0.0399,0.042,0.0461,0.0412,0.0435,0.0329,0.0293,0.021,0.0143,0.0145,0.0058,0.0039,0.0073,0.0075,0.0016,-0.0027,0.0038,0.0038,0.0038,0.0038,0,0.0287,0.0293,0.0326,0.0351,0.0365,0.0395,0.0441,0.0475,0.0487,0.0539,0.0541,0.0518,0.0478,0.0378,0.0279,0.0197,0.009,0.0087,0.0144,0.0132,0.0043,0.0002,-0.0045,-0.009,0.0046,0.0046,0.0046,0,0.0302,0.0322,0.0361,0.0388,0.0402,0.0446,0.0484,0.0507,0.0552,0.0602,0.0636,0.061,0.0615,0.0482,0.0338,0.0209,0.0116,0.0135,0.0096,0.006,-0.0001,-0.0039,-0.0077,0.0141,0.0142,0.0142,0.0143,0,0.0334,0.0348,0.0376,0.043,0.0474,0.0525,0.0581,0.0627,0.0672,0.0721,0.0786,0.0793,0.0688,0.0588,0.0403,0.0299,0.0108,0.0144,0.0091,0.0067,0.0042,-0.0017,0.0127,0.0149,0.0149,0.0148,0.0148,0.0148,0.036,0.0384,0.0424,0.0476,0.0528,0.0599,0.0647,0.0717,0.0799,0.0878,0.0893,0.0923,0.0789,0.0557,0.0416,0.0194,0.0152,0.0117,0.007,0.0035,-0.0007,0.016,0.0165,0.0164,0.0164,0.0163,0.0163,0,0.0392,0.042,0.0468,0.0531,0.0589,0.0614,0.071,0.0763,0.0864,0.0946,0.1001,0.0974,0.0811,0.0603,0.0326,0.0161,0.0069,0.0062,0.0023,-0.0017,0.0131,0.0137,0.0157,0.0157,0.0157,0.0158,0.0158,0.0158,0.041,0.0457,0.0478,0.057,0.0617,0.0692,0.0746,0.0836,0.091,0.1002,0.1037,0.1054,0.0941,0.0497,0.019,0.0097,-0.0047,-0.0059,-0.0159,-0.004,-0.0039,-0.0037,-0.004,-0.0057,-0.0057,-0.0274,-0.0276,-0.0278]}],[{"header":{"parameterUnit":"m.s-1","parameterCategory":2,"la1":30.2991,"la2":30.254,"lo1":-89.0895,"lo2":-89.0444,"dy":0.0017,"dx":0.0017,"nx":28,"ny":28,"refTime":"2023-10-03T03:00:00:Z","depth":"2","parameterNumber":2,"parameterNumberName":"U-component_of_CURRENTS"},"data":[0,0,0,0,0,0,0,0,0,0,0,0,0,0,0,0,0,0,0,0,0,0,0,0,0,0,0,0,0,0,0,0,0,0,0,0,0,0,0,0,0,0,0,0,0,0,0,0,0,0,0,0,0,0,0,0,0,0,0.1811,0.1811,0,0.1811,0.1811,0.1811,0.1804,0.1804,0.1804,0.1804,0.185,0.1851,0.1852,0,0,0,0,0,0,0,0,0,0,0,0,0,0.1833,0.1832,0.1811,0.1811,0.1811,0.1811,0.1811,0.181,0.1804,0.1804,0.1804,0.1804,0.1849,0.1851,0.1852,0,0,0,0,0,0,0,0,0,0,0,0,0,0.1825,0.1832,0.181,0.1809,0.1809,0.1811,0.1811,0.181,0.1804,0.1804,0.1804,0.1804,0.1849,0.185,0.1852,0.1863,0,0,0.1858,0.1859,0,0,0,0,0,0,0,0,0.1826,0.1824,0.1809,0.1809,0.1809,0.1809,0.1835,0.1831,0.1804,0.1804,0.1804,0.1804,0.1841,0.1844,0.1841,0.1866,0.1867,0.1858,0.1859,0.186,0.186,0,0,0,0,0,0,0,0.1826,0.1824,0.1809,0.1809,0.1809,0.1818,0.1817,0.1834,0.1822,0.1804,0.1804,0.1807,0.1842,0.1839,0.1842,0.1868,0.1858,0.1859,0.1861,0.1861,0.1922,0.1922,0,0,0,0,0,0,0.1828,0.1825,0.1809,0.1809,0.182,0.1818,0.1816,0.1808,0.1821,0.1823,0.1807,0.1807,0.1836,0.184,0.1843,0.1894,0.186,0.1861,0.1863,0.1921,0.1922,0.1923,0,0,0,0,0,0,0.1829,0.1826,0.1809,0.1819,0.1818,0.1818,0.1808,0.1808,0.1813,0.1823,0.1826,0.1814,0.1836,0.1841,0.1858,0.1894,0.1862,0.1864,0.1921,0.1922,0.1922,0.1972,0,0,0,0,0,0,0.1829,0.1826,0.1827,0.1819,0.1817,0.1816,0.1808,0.1808,0.1816,0.1815,0.183,0.1834,0.1836,0.1855,0.1859,0.1896,0.1865,0.192,0.1921,0.1922,0.1969,0.1974,0.1978,0,0,0,0,0,0.183,0.1824,0.1826,0.1825,0.1815,0.1817,0.1817,0.1816,0.1816,0.1821,0.1824,0.1834,0.1865,0.1856,0.1862,0.19,0.192,0.1921,0.1922,0.1967,0.1973,0.1978,0,0,0,0,0,0,0.1825,0.1823,0.1825,0.1817,0.1823,0.1817,0.1822,0.1823,0.1828,0.1831,0.1837,0.1841,0.1874,0.1871,0.1862,0.1917,0.1896,0.1898,0.1929,0.1934,0.1938,0.1934,0.1867,0,0,0,0,0,0.1827,0.1827,0.1827,0.1823,0.1827,0.1828,0.1831,0.1832,0.1834,0.1837,0.1849,0.1861,0.1881,0.1894,0.1908,0.1935,0.1934,0.1962,0.1967,0.197,0.1969,0.2011,0.2019,0.1926,0.1926,0.1926,0,0,0.1823,0.1824,0.1822,0.1824,0.1827,0.1835,0.1829,0.1837,0.1847,0.1843,0.1864,0.188,0.1891,0.1922,0.1937,0.1926,0.1991,0.1972,0.1975,0.1971,0.2013,0.2022,0.203,0.1927,0.1927,0.1927,0,0,0.1819,0.1818,0.1821,0.183,0.1842,0.1845,0.1851,0.1857,0.1865,0.1883,0.189,0.1917,0.1942,0.196,0.1971,0.2005,0.2014,0.202,0.2042,0.2083,0.2092,0.2099,0.2091,0.2098,0.2021,0.2021,0.2021,0,0.1818,0.1817,0.1823,0.1833,0.1842,0.1852,0.1861,0.1871,0.1884,0.1899,0.1895,0.1946,0.1959,0.2004,0.2016,0.2018,0.2028,0.2025,0.2091,0.2098,0.2105,0.2096,0.2102,0.2024,0.2023,0.2023,0.2023,0,0.1818,0.1823,0.1826,0.1843,0.1855,0.1863,0.1882,0.1901,0.1915,0.193,0.1977,0.1992,0.2022,0.204,0.2039,0.2101,0.2086,0.2095,0.2081,0.2118,0.2104,0.211,0.2027,0.2026,0.2026,0.2025,0,0,0.1796,0.1821,0.1823,0.1834,0.1861,0.1867,0.1898,0.1927,0.195,0.198,0.2014,0.2057,0.2076,0.2088,0.2104,0.2139,0.219,0.2141,0.2142,0.2138,0.2256,0.2197,0.2197,0.2225,0.2227,0.2228,0.2221,0,0.1794,0.181,0.1826,0.1845,0.1854,0.1882,0.1908,0.1941,0.1971,0.2008,0.2047,0.2083,0.2092,0.2114,0.2155,0.2186,0.2211,0.2189,0.2216,0.2215,0.2165,0.2205,0.201,0.1984,0.2226,0.2227,0.2228,0,0.1787,0.18,0.1816,0.1847,0.1854,0.1871,0.1917,0.1943,0.2004,0.2031,0.2085,0.2111,0.2169,0.2167,0.2238,0.2229,0.2245,0.226,0.2261,0.2193,0.2169,0.199,0.1986,0.2237,0.2237,0.2236,0.2235,0,0.1762,0.179,0.1801,0.1812,0.1851,0.187,0.1897,0.1954,0.1982,0.2052,0.2082,0.2148,0.2187,0.2231,0.2266,0.2262,0.2332,0.2326,0.2278,0.2272,0.2102,0.2079,0.2373,0.2373,0.2373,0.2373,0.2373,0,0.1747,0.1756,0.1791,0.1797,0.1816,0.1856,0.1889,0.1929,0.1992,0.2031,0.2096,0.2133,0.2214,0.226,0.2279,0.2295,0.2344,0.2283,0.2279,0.211,0.2088,0.2307,0.2299,0.2373,0.2373,0.2373,0.2373,0,0.1715,0.1738,0.175,0.1791,0.1803,0.1819,0.1875,0.1901,0.1971,0.2024,0.2048,0.214,0.2198,0.2252,0.2318,0.2305,0.2324,0.2316,0.2089,0.2059,0.2222,0.2217,0.2247,0.2245,0.2243,0.2242,0.2241,0,0.1699,0.1704,0.1735,0.1742,0.176,0.1792,0.1813,0.1882,0.1913,0.2017,0.2036,0.212,0.2153,0.2217,0.2217,0.2222,0.2295,0.2039,0.1999,0.2223,0.2216,0.2213,0.2211,0.1776,0.1771,0.1767,0.1764,0,0.1673,0.1684,0.1696,0.1706,0.1724,0.174,0.1779,0.1798,0.1882,0.192,0.1975,0.2009,0.2074,0.1997,0.202,0.2,0.2022,0.1959,0.2268,0.1849,0.1782,0.1775,0.1787,0.1729,0.1733,0.1735,0.1737,0.1738,0.1653,0.165,0.1663,0.1664,0.1679,0.168,0.1669,0.1712,0.1735,0.1767,0.1853,0.1834,0.1853,0.1788,0.1735,0.1696,0.1843,0.1745,0.1756,0.1771,0.173,0.1665,0.1579,0.1581,0.1583,0.1585,0.1587,0,0.1617,0.1615,0.1619,0.1608,0.1589,0.162,0.1631,0.1602,0.1586,0.1625,0.1639,0.1505,0.1435,0.1462,0.1344,0.1342,0.1321,0.1282,0.1231,0.1267,0.1299,0.1232,0.0949,0.0948,0.0946,0.0944,0,0,0.1601,0.1579,0.1569,0.1515,0.1507,0.1456,0.1442,0.1413,0.1409,0.136,0.1317,0.1389,0.142,0.1177,0.1136,0.102,0.1139,0.0976,0.1487,0.1463,0.1493,0.1564,0.1501,0,0,0,0,0]},{"header":{"parameterUnit":"m.s-1","parameterCategory":2,"la1":30.2991,"la2":30.254,"lo1":-89.0895,"lo2":-89.0444,"dy":0.0017,"dx":0.0017,"nx":28,"ny":28,"refTime":"2023-10-03T03:00:00:Z","depth":"2","parameterNumber":3,"parameterNumberName":"V-component_of_CURRENTS"},"data":[0,0,0,0,0,0,0,0,0,0,0,0,0,0,0,0,0,0,0,0,0,0,0,0,0,0,0,0,0,0,0,0,0,0,0,0,0,0,0,0,0,0,0,0,0,0,0,0,0,0,0,0,0,0,0,0,0,0,0.0068,0.0068,0,0.0045,0.0045,0.0045,0.004,0.004,0.004,0.004,0.0013,0.0013,0.0012,0,0,0,0,0,0,0,0,0,0,0,0,0,0.0136,0.0134,0.0068,0.0068,0.0068,0.0045,0.0045,0.0045,0.004,0.004,0.004,0.004,0.0014,0.0013,0.0012,0,0,0,0,0,0,0,0,0,0,0,0,0,0.011,0.0134,0.0069,0.0061,0.006,0.0045,0.0045,0.0045,0.004,0.004,0.004,0.004,0.0014,0.0013,0.0012,0.0005,0,0,0.0009,0.0008,0,0,0,0,0,0,0,0,0.0112,0.0108,0.0063,0.0061,0.006,0.0044,0.0059,0.0031,0.004,0.0049,0.004,0.004,0.0022,0.002,0.0019,0.0004,0.0003,0.0009,0.0008,0.0007,0.0007,0,0,0,0,0,0,0,0.0113,0.0109,0.0061,0.0062,0.0061,0.0068,0.0064,0.0054,0.0037,0.0048,0.0048,0.0042,0.0022,0.002,0.0018,0.0003,0.0009,0.0008,0.0007,0.0007,0.0013,0.0014,0,0,0,0,0,0,0.0111,0.0111,0.0062,0.006,0.0084,0.0066,0.0062,0.005,0.0037,0.0035,0.0042,0.0042,0.0021,0.0019,0.0017,0.0026,0.0007,0.0006,0.0006,0.0012,0.0013,0.0014,0,0,0,0,0,0,0.0112,0.0107,0.0063,0.0084,0.0079,0.0065,0.0052,0.005,0.0048,0.0032,0.003,0.0042,0.0021,0.0018,0.0021,0.0024,0.0006,0.0005,0.0011,0.0013,0.0014,0.0032,0,0,0,0,0,0,0.0114,0.0107,0.01,0.0083,0.0077,0.0059,0.0051,0.0049,0.0044,0.0043,0.0031,0.0029,0.0021,0.0023,0.002,0.0022,0.0004,0.001,0.0012,0.0013,0.0031,0.0034,0.0037,0,0,0,0,0,0.0117,0.0106,0.0099,0.0093,0.0066,0.0059,0.0058,0.0049,0.0044,0.0047,0.0045,0.0029,0.003,0.0023,0.0019,0.0021,0.001,0.0011,0.0013,0.0029,0.0033,0.0037,0,0,0,0,0,0,0.0127,0.0103,0.0096,0.0077,0.0071,0.0058,0.0056,0.005,0.005,0.005,0.0037,0.0035,0.0037,0.0031,0.0023,0.003,0.0018,0.0019,0.0031,0.0035,0.0038,0.0049,0.0003,0,0,0,0,0,0.0126,0.0114,0.0097,0.0083,0.008,0.0069,0.0064,0.006,0.0055,0.0055,0.0047,0.0043,0.0042,0.0041,0.0037,0.0039,0.0029,0.004,0.0043,0.0046,0.0054,0.004,0.0042,0.002,0.002,0.002,0,0,0.0125,0.0111,0.0103,0.0085,0.008,0.0085,0.0067,0.0063,0.0072,0.0052,0.0061,0.005,0.0045,0.005,0.0051,0.0045,0.0048,0.0048,0.005,0.0057,0.0042,0.0044,0.0046,0.0021,0.0021,0.0021,0,0,0.013,0.0108,0.0108,0.0105,0.0097,0.0093,0.0093,0.0083,0.0084,0.0089,0.0079,0.0077,0.0071,0.0071,0.007,0.0089,0.0063,0.0083,0.0106,0.0093,0.0094,0.0095,0.0086,0.0086,0.0086,0.0086,0.0086,0,0.0133,0.0128,0.0108,0.0114,0.0117,0.01,0.0112,0.011,0.0104,0.0111,0.0098,0.0096,0.0084,0.0095,0.0102,0.0095,0.0082,0.0089,0.0095,0.0096,0.0097,0.0087,0.0087,0.0087,0.0087,0.0087,0.0087,0,0.0146,0.0144,0.0145,0.0148,0.015,0.0155,0.0151,0.0155,0.0149,0.0148,0.0153,0.0137,0.0137,0.0129,0.012,0.0123,0.0111,0.0097,0.0082,0.01,0.0089,0.0089,0.0089,0.0089,0.0088,0.0088,0,0,0.0154,0.0155,0.0158,0.017,0.017,0.0176,0.0189,0.0201,0.0218,0.0202,0.0219,0.0205,0.0188,0.0187,0.0167,0.0154,0.0143,0.0128,0.0127,0.0114,0.0112,0.0108,0.0107,0.0122,0.0122,0.0122,0.0102,0,0.0177,0.0197,0.0192,0.0221,0.0234,0.0228,0.0246,0.0253,0.0255,0.0267,0.0244,0.0248,0.0213,0.0209,0.019,0.0161,0.0143,0.015,0.0103,0.0102,0.0091,0.0107,0.0128,0.0112,0.0102,0.0101,0.0101,0,0.0201,0.0212,0.0241,0.0264,0.0271,0.0286,0.0317,0.0331,0.0339,0.0338,0.033,0.0308,0.0293,0.0253,0.0207,0.0211,0.0164,0.0133,0.0131,0.0122,0.0097,0.0093,0.0111,0.01,0.01,0.01,0.0101,0,0.023,0.0251,0.0278,0.0285,0.0305,0.0323,0.0337,0.0354,0.0379,0.0382,0.0396,0.0364,0.0356,0.0295,0.0228,0.0214,0.0174,0.0147,0.0099,0.0098,0.0106,0.0106,0.0106,0.0106,0.0106,0.0106,0.0106,0,0.0259,0.0282,0.0294,0.031,0.0352,0.0355,0.0402,0.0411,0.0434,0.0475,0.0433,0.0453,0.0364,0.0327,0.0252,0.0183,0.019,0.011,0.0094,0.0114,0.0115,0.0097,0.0096,0.0105,0.0105,0.0105,0.0105,0,0.0287,0.0293,0.0327,0.0353,0.0367,0.0397,0.0444,0.0479,0.0492,0.0542,0.0543,0.0522,0.0481,0.0391,0.0303,0.0226,0.0152,0.0119,0.0151,0.0139,0.0078,0.0079,0.0069,0.0069,0.0068,0.0068,0.0068,0,0.0301,0.0321,0.036,0.0386,0.0399,0.0443,0.048,0.0506,0.0549,0.0593,0.0624,0.0595,0.0591,0.0463,0.0332,0.0208,0.0169,0.0122,0.0097,0.009,0.0075,0.0076,0.0077,0.0115,0.0115,0.0115,0.0116,0,0.0332,0.0345,0.0373,0.0423,0.0464,0.0515,0.0568,0.0611,0.0654,0.0696,0.0747,0.0745,0.0641,0.0529,0.0352,0.0261,0.0145,0.0122,0.0111,0.0121,0.0132,0.0118,0.0117,0.0117,0.0117,0.0117,0.0117,0.0117,0.0356,0.0379,0.0415,0.0464,0.0514,0.0579,0.0624,0.0686,0.0758,0.0818,0.0827,0.0821,0.0702,0.0484,0.0336,0.0167,0.0178,0.0097,0.0097,0.0097,0.0106,0.0116,0.01,0.01,0.01,0.01,0.01,0,0.0384,0.0409,0.0453,0.0511,0.0565,0.059,0.0679,0.0721,0.0804,0.0855,0.0891,0.0766,0.0657,0.0501,0.0272,0.0137,0.0118,0.0069,0.0082,0.0083,0.0083,0.009,0.008,0.0079,0.0079,0.0078,0,0,0.0399,0.0439,0.0457,0.0539,0.0585,0.0652,0.0701,0.0769,0.0816,0.0854,0.0849,0.0858,0.0698,0.0516,0.0348,0.0212,0.0165,0.0173,0.0208,0.0245,0.0246,0.0126,0.0142,0,0,0,0,0]}],[{"header":{"parameterUnit":"m.s-1","parameterCategory":2,"la1":30.2991,"la2":30.254,"lo1":-89.0895,"lo2":-89.0444,"dy":0.0017,"dx":0.0017,"nx":28,"ny":28,"refTime":"2023-10-03T03:00:00:Z","depth":"4","parameterNumber":2,"parameterNumberName":"U-component_of_CURRENTS"},"data":[0,0,0,0,0,0,0,0,0,0,0,0,0,0,0,0,0,0,0,0,0,0,0,0,0,0,0,0,0,0,0,0,0,0,0,0,0,0,0,0,0,0,0,0,0,0,0,0,0,0,0,0,0,0,0,0,0,0,0.1194,0.1195,0,0.1219,0.1219,0.1219,0.1243,0.1244,0.1245,0.1245,0.1227,0.1226,0.1225,0,0,0,0,0,0,0,0,0,0,0,0,0,0.1145,0.1146,0.1194,0.1195,0.1195,0.1219,0.1219,0.1219,0.1243,0.1244,0.1245,0.1246,0.1227,0.1226,0.1225,0,0,0,0,0,0,0,0,0,0,0,0,0,0.1164,0.1146,0.1194,0.1213,0.1215,0.1219,0.1219,0.1219,0.1243,0.1244,0.1245,0.1246,0.1228,0.1226,0.1225,0.1195,0,0,0.122,0.1219,0,0,0,0,0,0,0,0,0.1163,0.1166,0.121,0.1212,0.1214,0.1232,0.1195,0.121,0.1243,0.1229,0.1245,0.1246,0.1226,0.1225,0.1223,0.1194,0.1193,0.1219,0.1218,0.1218,0.1217,0,0,0,0,0,0,0,0.1162,0.1165,0.12,0.121,0.1213,0.1213,0.1216,0.1198,0.1218,0.123,0.1233,0.1241,0.1227,0.1224,0.1222,0.1193,0.1219,0.1218,0.1217,0.1216,0.1224,0.1225,0,0,0,0,0,0,0.1166,0.1164,0.1199,0.1201,0.1195,0.1213,0.1217,0.1222,0.1219,0.1221,0.124,0.1242,0.1227,0.1224,0.1222,0.1259,0.1218,0.1216,0.1215,0.1223,0.1224,0.1226,0,0,0,0,0,0,0.1165,0.1169,0.1199,0.1186,0.119,0.1214,0.1219,0.1223,0.1248,0.1228,0.1229,0.1266,0.1227,0.1224,0.1235,0.1256,0.1215,0.1214,0.1221,0.1223,0.1225,0.1286,0,0,0,0,0,0,0.1164,0.1168,0.1186,0.1186,0.1191,0.122,0.1219,0.1222,0.1252,0.1255,0.125,0.1248,0.1228,0.1238,0.1234,0.1253,0.1213,0.122,0.1222,0.1224,0.1282,0.1289,0.1295,0,0,0,0,0,0.1162,0.1176,0.1186,0.1191,0.121,0.1221,0.1224,0.1241,0.1252,0.1267,0.1269,0.1249,0.1249,0.1237,0.1232,0.1251,0.1219,0.1222,0.1224,0.1279,0.1288,0.1295,0,0,0,0,0,0,0.1165,0.1181,0.1191,0.1211,0.1227,0.1228,0.1248,0.1256,0.1269,0.1279,0.1259,0.1257,0.1277,0.1256,0.1244,0.1262,0.1232,0.1234,0.1276,0.1284,0.129,0.1296,0.1211,0,0,0,0,0,0.1173,0.1191,0.1203,0.1223,0.1234,0.1246,0.1258,0.1269,0.1276,0.1285,0.1282,0.128,0.1277,0.1277,0.127,0.1273,0.1268,0.1284,0.1291,0.1297,0.1299,0.1315,0.1323,0.1234,0.1234,0.1234,0,0,0.1181,0.1193,0.1204,0.1226,0.124,0.1254,0.1256,0.1283,0.1297,0.1278,0.1304,0.1304,0.1286,0.1297,0.1303,0.1285,0.1323,0.13,0.1305,0.1304,0.1319,0.1327,0.1335,0.1236,0.1236,0.1236,0,0,0.1194,0.1217,0.1233,0.1248,0.1277,0.1281,0.1296,0.1313,0.1329,0.1348,0.1344,0.136,0.1352,0.1346,0.1339,0.1376,0.1361,0.138,0.1412,0.1428,0.1435,0.1442,0.1459,0.1466,0.1379,0.1379,0.1379,0,0.1206,0.1224,0.1241,0.1259,0.1275,0.1297,0.1314,0.1328,0.1348,0.1362,0.1368,0.1383,0.1373,0.1381,0.1401,0.139,0.1401,0.1382,0.1437,0.1443,0.1448,0.1464,0.1471,0.1382,0.1382,0.1382,0.1381,0,0.122,0.1245,0.1258,0.1285,0.1304,0.1325,0.1345,0.1372,0.1396,0.1406,0.1439,0.1435,0.1443,0.1447,0.1435,0.147,0.1466,0.1447,0.1416,0.1461,0.1474,0.1481,0.1387,0.1386,0.1385,0.1384,0,0,0.1217,0.1259,0.1267,0.1283,0.1321,0.1332,0.1367,0.1395,0.142,0.1451,0.1479,0.1492,0.1506,0.15,0.1495,0.151,0.1564,0.1504,0.1504,0.152,0.1613,0.1507,0.1504,0.1562,0.1564,0.1565,0.1611,0,0.1225,0.1257,0.1278,0.1311,0.1327,0.1359,0.1385,0.1417,0.1446,0.148,0.1497,0.1521,0.152,0.1534,0.1555,0.1562,0.1583,0.1554,0.1567,0.1567,0.1467,0.1508,0.1569,0.1615,0.1617,0.1618,0.1619,0,0.1226,0.125,0.1283,0.1322,0.1333,0.1359,0.1407,0.1434,0.1483,0.1509,0.1546,0.1559,0.1597,0.1586,0.1631,0.1618,0.1627,0.1629,0.163,0.1511,0.1473,0.1558,0.163,0.1629,0.1628,0.1627,0.1627,0,0.1202,0.1249,0.1276,0.129,0.1339,0.1367,0.14,0.145,0.1476,0.1535,0.1565,0.1604,0.1636,0.1656,0.1675,0.1663,0.1718,0.1692,0.1605,0.1598,0.1652,0.1645,0.1723,0.1723,0.1723,0.1723,0.1723,0,0.1185,0.121,0.1273,0.1285,0.1322,0.1364,0.1409,0.1446,0.1503,0.1532,0.1586,0.1607,0.166,0.1693,0.1697,0.1674,0.1739,0.1617,0.1602,0.1678,0.1673,0.1657,0.1649,0.1725,0.1724,0.1724,0.1724,0,0.1147,0.119,0.1224,0.1288,0.1311,0.1341,0.1412,0.1436,0.1505,0.1547,0.157,0.1635,0.1672,0.1709,0.1742,0.1692,0.1681,0.1657,0.1752,0.1741,0.1546,0.154,0.1554,0.1551,0.1548,0.1546,0.1544,0,0.1126,0.1143,0.122,0.1244,0.1277,0.1331,0.1361,0.1431,0.1453,0.1543,0.155,0.1619,0.165,0.1616,0.1664,0.1662,0.164,0.1624,0.1567,0.1544,0.1529,0.1528,0.1526,0.1539,0.1538,0.1537,0.1537,0,0.1086,0.1128,0.1159,0.1209,0.1249,0.128,0.1331,0.1337,0.1411,0.1487,0.1484,0.149,0.153,0.1543,0.156,0.1553,0.1624,0.1594,0.1599,0.1545,0.1526,0.1513,0.1515,0.1527,0.1528,0.1529,0.153,0,0.1064,0.1076,0.1128,0.1157,0.1207,0.1211,0.1245,0.1261,0.1289,0.1376,0.1374,0.1443,0.1512,0.1488,0.1501,0.149,0.1457,0.1394,0.1409,0.1421,0.1353,0.1308,0.1233,0,0,0,0,0,0.1031,0.1037,0.1067,0.109,0.1134,0.1158,0.1213,0.1245,0.1314,0.1274,0.1315,0.1337,0.134,0.1377,0.1337,0.1453,0.1476,0.14,0.1415,0.1472,0.1483,0.1416,0,0,0,0,0,0,0.101,0.1042,0.1044,0.1027,0.1028,0.1059,0.109,0.1137,0.1114,0.119,0.12,0.1254,0.1284,0.1351,0.1312,0.1324,0.1303,0.1445,0.1441,0.1466,0.1476,0.1485,0.1419,0,0,0,0,0]},{"header":{"parameterUnit":"m.s-1","parameterCategory":2,"la1":30.2991,"la2":30.254,"lo1":-89.0895,"lo2":-89.0444,"dy":0.0017,"dx":0.0017,"nx":28,"ny":28,"refTime":"2023-10-03T03:00:00:Z","depth":"4","parameterNumber":3,"parameterNumberName":"V-component_of_CURRENTS"},"data":[0,0,0,0,0,0,0,0,0,0,0,0,0,0,0,0,0,0,0,0,0,0,0,0,0,0,0,0,0,0,0,0,0,0,0,0,0,0,0,0,0,0,0,0,0,0,0,0,0,0,0,0,0,0,0,0,0,0,0.0114,0.0114,0,0.0102,0.0102,0.0102,0.0105,0.0105,0.0105,0.0105,0.0122,0.0122,0.0122,0,0,0,0,0,0,0,0,0,0,0,0,0,0.0158,0.0158,0.0114,0.0114,0.0113,0.0102,0.0102,0.0102,0.0105,0.0105,0.0105,0.0105,0.0122,0.0122,0.0122,0,0,0,0,0,0,0,0,0,0,0,0,0,0.0144,0.0157,0.0114,0.0112,0.0112,0.0102,0.0102,0.0102,0.0105,0.0105,0.0105,0.0105,0.0121,0.0122,0.0122,0.0124,0,0,0.0124,0.0124,0,0,0,0,0,0,0,0,0.0144,0.0142,0.0113,0.0112,0.0112,0.0103,0.0123,0.011,0.0105,0.0109,0.0105,0.0105,0.0117,0.0118,0.0117,0.0124,0.0125,0.0124,0.0125,0.0125,0.0125,0,0,0,0,0,0,0,0.0145,0.0143,0.0111,0.0112,0.0112,0.0118,0.0116,0.0121,0.0115,0.0109,0.0109,0.0104,0.0117,0.0117,0.0118,0.0125,0.0124,0.0125,0.0125,0.0125,0.0152,0.0152,0,0,0,0,0,0,0.0142,0.0144,0.0111,0.011,0.0127,0.0117,0.0115,0.0107,0.0114,0.0114,0.0104,0.0105,0.0116,0.0117,0.0119,0.0142,0.0125,0.0125,0.0126,0.0151,0.0152,0.0152,0,0,0,0,0,0,0.0143,0.0139,0.0112,0.0126,0.0122,0.0116,0.0108,0.0107,0.0109,0.011,0.0111,0.0107,0.0116,0.0118,0.0131,0.0142,0.0126,0.0126,0.0151,0.0151,0.0152,0.0175,0,0,0,0,0,0,0.0144,0.014,0.0136,0.0125,0.0121,0.011,0.0107,0.0107,0.0105,0.0105,0.0112,0.0114,0.0116,0.013,0.0131,0.0142,0.0126,0.015,0.0151,0.0152,0.0174,0.0176,0.0178,0,0,0,0,0,0.0146,0.0138,0.0136,0.0132,0.0115,0.011,0.0109,0.0106,0.0105,0.0108,0.0115,0.0113,0.0135,0.0131,0.0132,0.0144,0.015,0.0151,0.0152,0.0173,0.0176,0.0178,0,0,0,0,0,0,0.0153,0.0138,0.0134,0.0122,0.0119,0.011,0.011,0.0108,0.0114,0.0117,0.0119,0.0121,0.0136,0.0135,0.0131,0.0153,0.0142,0.0143,0.0157,0.016,0.0162,0.0167,0.0127,0,0,0,0,0,0.0152,0.0146,0.0134,0.0126,0.0124,0.0118,0.0116,0.0114,0.0116,0.0118,0.0123,0.013,0.014,0.0147,0.0153,0.0165,0.0153,0.0173,0.0175,0.0177,0.0181,0.017,0.0171,0.0155,0.0155,0.0155,0,0,0.0152,0.0143,0.0139,0.0127,0.0125,0.013,0.0118,0.0116,0.0126,0.012,0.0137,0.0138,0.0145,0.016,0.0167,0.0162,0.0174,0.0178,0.018,0.0183,0.0171,0.0172,0.0174,0.0155,0.0155,0.0155,0,0,0.0155,0.0142,0.0142,0.0142,0.0137,0.0136,0.0136,0.0132,0.0137,0.0149,0.015,0.0157,0.017,0.0178,0.0183,0.0201,0.0185,0.0202,0.0221,0.0209,0.0211,0.0211,0.0192,0.0191,0.0205,0.0205,0.0205,0,0.0158,0.0156,0.0143,0.0148,0.0152,0.0141,0.0153,0.0154,0.0157,0.0167,0.0159,0.0179,0.018,0.0203,0.0209,0.0207,0.0194,0.021,0.0212,0.0213,0.0213,0.0193,0.0191,0.0206,0.0206,0.0206,0.0206,0,0.0166,0.0168,0.0169,0.0174,0.0178,0.0183,0.0184,0.0191,0.0193,0.0198,0.0215,0.0212,0.0224,0.0225,0.0224,0.0234,0.022,0.0215,0.0205,0.0216,0.0194,0.0192,0.0208,0.0208,0.0207,0.0207,0,0,0.017,0.0174,0.0178,0.0191,0.0194,0.0201,0.0216,0.0232,0.0251,0.0247,0.0268,0.0274,0.0266,0.0271,0.0265,0.0256,0.0244,0.0239,0.0238,0.0219,0.0212,0.02,0.0196,0.0237,0.0237,0.0237,0.0192,0,0.0186,0.0203,0.0203,0.023,0.0242,0.0243,0.0263,0.0276,0.0284,0.03,0.0292,0.0307,0.0285,0.029,0.0278,0.0259,0.0241,0.0256,0.0204,0.0202,0.019,0.0195,0.0237,0.019,0.019,0.019,0.0189,0,0.0201,0.0212,0.0239,0.0266,0.0273,0.0289,0.0323,0.0339,0.0355,0.036,0.0363,0.0352,0.0346,0.032,0.0282,0.0292,0.0252,0.0228,0.0225,0.0207,0.0187,0.0178,0.0186,0.0186,0.0186,0.0186,0.0187,0,0.022,0.0242,0.0268,0.0276,0.0301,0.032,0.0337,0.036,0.0385,0.0396,0.0409,0.0393,0.039,0.0341,0.0285,0.0283,0.0234,0.0224,0.0171,0.0169,0.0183,0.0182,0.0185,0.0185,0.0185,0.0185,0.0185,0,0.0238,0.0261,0.0279,0.0294,0.0335,0.0344,0.039,0.0404,0.0429,0.0462,0.044,0.0452,0.0394,0.0358,0.0297,0.023,0.0238,0.0175,0.016,0.0193,0.0194,0.0181,0.0181,0.0184,0.0184,0.0184,0.0185,0,0.0253,0.0264,0.0297,0.0329,0.0344,0.0374,0.0423,0.0454,0.0472,0.051,0.0513,0.0499,0.0456,0.0388,0.0313,0.0252,0.0185,0.0153,0.019,0.0178,0.0122,0.0123,0.0094,0.0093,0.0093,0.0092,0.0092,0,0.0261,0.0279,0.0323,0.0346,0.0363,0.0407,0.0441,0.0474,0.0506,0.0539,0.0556,0.053,0.0507,0.0393,0.0318,0.0196,0.0174,0.0125,0.0125,0.0125,0.0114,0.0116,0.0119,0.0091,0.0091,0.009,0.009,0,0.0277,0.0294,0.032,0.0366,0.0405,0.0452,0.0499,0.0525,0.0564,0.0582,0.0587,0.0533,0.0487,0.0397,0.0303,0.0215,0.0153,0.0118,0.0119,0.0118,0.0121,0.0111,0.0114,0.0088,0.0088,0.0089,0.0089,0,0.0291,0.0308,0.0341,0.0382,0.0432,0.0479,0.0506,0.054,0.0573,0.0602,0.0604,0.0554,0.053,0.0407,0.0322,0.0236,0.0209,0.0162,0.016,0.0161,0.0193,0.0208,0.0191,0,0,0,0,0,0.0299,0.0316,0.0353,0.0397,0.0446,0.0474,0.0537,0.056,0.0597,0.0602,0.0603,0.0556,0.0445,0.0406,0.0317,0.0304,0.0189,0.0194,0.0133,0.0076,0.0079,0.0104,0,0,0,0,0,0,0.0303,0.0335,0.0348,0.04,0.0429,0.0486,0.0525,0.0552,0.0556,0.0579,0.0527,0.051,0.0409,0.0492,0.0307,0.0284,0.0226,0.015,0.0148,0.0075,0.0077,0.0079,0.0106,0,0,0,0,0]}]]